User: anonymous
Location: Young's Pond
(41.2695°N, 72.7766°W)
Time: 17:33:17
(UTC-04:00)
Language:

Spot 4 - Orbit

View from above orbital plane
View from above orbital plane
View from above satellite
View from above satellite

Ground track
Ground track

The orbit data is extracted from the following two-line orbital elements,

1 25260U 98017A   14203.24656598  .00000037  00000-0  20186-4 0  3989
2 25260 098.4574 267.4095 0011796 290.9598 069.0335 14.52996042847752
Epoch (UTC): 22 July 2014 05:55:03
Eccentricity: 0.0011796
inclination: 98.4574°
perigee height: 707 km
apogee height: 724 km
right ascension of ascending node: 267.4095°
argument of perigee: 290.9598°
revolutions per day: 14.52996042
mean anomaly at epoch: 69.0335°
orbit number at epoch: 84775

The dashed part of the orbit path shows where the satellite is in the earth's shadow,  

DLR